TimeEDT,TemperatureF,Dew PointF,Humidity,Sea Level PressureIn,VisibilityMPH,Wind Direction,Wind SpeedMPH,Gust SpeedMPH,PrecipitationIn,Events,Conditions,WindDirDegrees,DateUTC
12:54 AM,39.0,36.0,89,29.59,10.0,Calm,Calm,-,N/A,,Partly Cloudy,0,2012-11-03 04:54:00
1:54 AM,37.0,35.1,93,29.59,10.0,Calm,Calm,-,N/A,,Mostly Cloudy,0,2012-11-03 05:54:00
2:54 AM,37.0,35.1,93,29.60,10.0,Calm,Calm,-,N/A,,Overcast,0,2012-11-03 06:54:00
3:54 AM,37.9,36.0,93,29.60,10.0,Calm,Calm,-,N/A,,Overcast,0,2012-11-03 07:54:00
4:54 AM,37.9,36.0,93,29.61,10.0,SW,3.5,-,N/A,,Overcast,230,2012-11-03 08:54:00
5:54 AM,37.9,35.1,89,29.62,10.0,Calm,Calm,-,N/A,,Overcast,0,2012-11-03 09:54:00
6:54 AM,37.9,36.0,93,29.63,10.0,Calm,Calm,-,N/A,,Overcast,0,2012-11-03 10:54:00
7:54 AM,39.0,35.1,86,29.64,10.0,Calm,Calm,-,N/A,,Clear,0,2012-11-03 11:54:00
8:54 AM,44.1,35.1,71,29.66,10.0,Calm,Calm,-,N/A,,Partly Cloudy,0,2012-11-03 12:54:00
9:54 AM,46.0,34.0,63,29.67,10.0,Calm,Calm,-,N/A,,Clear,0,2012-11-03 13:54:00
10:54 AM,46.9,33.1,59,29.68,10.0,Calm,Calm,-,N/A,,Scattered Clouds,0,2012-11-03 14:54:00
11:54 AM,48.0,32.0,54,29.68,10.0,West,6.9,-,N/A,,Partly Cloudy,280,2012-11-03 15:54:00
12:54 PM,48.9,32.0,52,29.67,10.0,Variable,4.6,-,N/A,,Clear,0,2012-11-03 16:54:00
1:54 PM,48.9,32.0,52,29.67,10.0,West,9.2,-,N/A,,Partly Cloudy,260,2012-11-03 17:54:00
2:54 PM,48.0,30.9,52,29.67,10.0,West,8.1,17.3,N/A,,Partly Cloudy,270,2012-11-03 18:54:00
3:54 PM,46.9,30.9,54,29.69,10.0,West,8.1,-,N/A,,Overcast,280,2012-11-03 19:54:00
4:54 PM,44.1,30.0,58,29.71,10.0,West,9.2,-,N/A,,Clear,280,2012-11-03 20:54:00
5:54 PM,43.0,30.0,60,29.72,10.0,West,10.4,-,N/A,,Partly Cloudy,280,2012-11-03 21:54:00
6:54 PM,42.1,30.0,62,29.73,10.0,West,5.8,-,N/A,,Clear,270,2012-11-03 22:54:00
7:54 PM,42.1,30.0,62,29.74,10.0,West,5.8,-,N/A,,Partly Cloudy,270,2012-11-03 23:54:00
8:54 PM,43.0,30.0,60,29.73,10.0,West,6.9,-,N/A,,Overcast,280,2012-11-04 00:54:00
9:54 PM,43.0,30.0,60,29.75,10.0,Calm,Calm,-,N/A,,Overcast,0,2012-11-04 01:54:00
10:54 PM,43.0,30.0,60,29.74,10.0,Variable,3.5,-,N/A,,Overcast,0,2012-11-04 02:54:00
11:54 PM,44.1,30.9,60,29.75,10.0,Variable,3.5,-,N/A,,Overcast,0,2012-11-04 03:54:00